Regional Weather Roundup
Issued by NWS Newport/Morehead, NC

Current Version | Previous Version | Graphics & Text | Print | Product List | Glossary Off
Versions: 1 2 3 4 5 6 7 8 9 10 11 12 13 14 15 16 17 18 19 20 21 22 23 24 25 26 27 28 29 30 31 32 33 34 35 36 37 38 39

000
ASUS42 KMHX 241210
RWRMHX
WEATHER ROUNDUP FOR EASTERN NORTH CAROLINA
NATIONAL WEATHER SERVICE NEWPORT/MOREHEAD CITY NC
800 AM EDT THU APR 24 2014

NOTE: "FAIR" INDICATES FEW OR NO CLOUDS BELOW 12,000 FEET
WITH NO SIGNIFICANT WEATHER AND/OR OBSTRUCTIONS TO VISIBILITY

NCZ015>017-031-032-045>047-102-103-241300-
NORTH COAST

CITY           SKY/WX    TMP DP  RH WIND       PRES   REMARKS
EDENTON        SUNNY     47  36  66 N7        30.11R
ELIZABETH CITY SUNNY     51  32  48 NW13      30.10R
KITTY HAWK     SUNNY     51  37  60 N8        30.08R
MANTEO         SUNNY     51  36  57 N12       30.09R

$$

NCZ045>047-081-094-103-104-241300-
CENTRAL COAST

CITY           SKY/WX    TMP DP  RH WIND       PRES   REMARKS
FRISCO         SUNNY     53  35  50 VRB7      30.09R
SWANQUARTER      N/A     52 N/A N/A NW2       30.06R

$$

NCZ095-097-098-100-101-241300-
SOUTHERN COAST

CITY           SKY/WX    TMP DP  RH WIND       PRES   REMARKS
BEAUFORT       SUNNY     54  40  59 N9        30.09R
CEDAR ISLAND     N/A     55 N/A N/A N14       30.12R
JACKSONVILLE   SUNNY     53  38  56 NE9       30.10R
NEWPORT          N/A     54  41  62 N6          N/A
PINEY ISLAND   SUNNY     57  40  52 NE12      30.09R
WILMINGTON     SUNNY     54  41  61 NE10      30.09R


$$

NCZ011>013-027>030-043-044-078>080-089-090>093-098-241300-
COASTAL PLAIN

CITY           SKY/WX    TMP DP  RH WIND       PRES   REMARKS
AHOSKIE        SUNNY     46  35  66 N5        30.13R
CLINTON        SUNNY     52  39  61 NE5       30.12R
ELIZABETHTOWN  SUNNY     49  39  66 CALM      30.11R
GOLDSBORO      SUNNY     50  35  56 NE8       30.10R
GREENVILLE     SUNNY     48  36  61 NE7       30.13R
HAVELOCK       SUNNY     54  40  59 NE9       30.11R
KENANSVILLE    SUNNY     49  38  66 NE3       30.13R
KINSTON        SUNNY     50  39  66 MISG      30.12R
NEW BERN       SUNNY     53  38  56 NE10      30.12R
RICHLANDS      SUNNY     52  48  87 N9        30.12R
ROANOKE RAPIDS NOT AVBL
ROCKY MOUNT    SUNNY     49  39  68 CALM      30.12R
WASHINGTON     SUNNY     49  38  67 NE6       30.12R
WHITEVILLE     SUNNY     54  37  53 NE9       30.10R

$$

AMZ130-135-150-152-154-156-158-170-250-252-270-ANZ085-086-088-633-658-670-241300-
MARINE OBSERVATIONS

STATION/POSITION TIME  TEMP    WIND        PRES    WAVE   SWELL
                       AIR SEA DIR/SP/G            HT/PER HT/PER
                 (UTC) (F)     (DEG/KT/KT) (MB)    (FT/S) (FT/S)
CHESAPEAKE LIGHT 1100   49     340/ 18/ 19 1018.4
BUOY 44014       1200   49 48  340/ 17/ 23 1017.2    6/ 7   2/13
DUCK             1200   50 51  340/ 13/ 16 1017.7
2E DUCK          1200      51                N/A     4/ 6
OREGON INLET     1200   51 55  350/ 12/ 16 1018.8
BUOY 44095       1200      49                N/A     5/ 6   2/14
HATTERAS CG      1200   53 61   10/ 15/ 18 1019.0
DIAMOND BUOY     1200   54 74   10/ 19/ 25 1017.9    7/ 6   3/10
CAPE LOOKOUT     1100   56      20/ 14/ 17 1017.9
BEAUFORT LAB     1200   54 62   20/  8/ 10 1018.2
30 SE NEW RIVER  1200   59 66   30/ 19/ 21 1018.5    3/ 4   2/ 9
5 SE WRIGHTSVILL 1100   58 60   40/ 16/ 19 1017.6
FRYING PAN BUOY  1200   66 68   50/ 16/ 17 1017.0    4/ 8   2/ 8
BUOY 41001       NOT AVBL
BUOY 41002       NOT AVBL
BUOY 41004       1200   71 70   70/ 14/ 16 1015.8    3/ 4   2/ 8

$$



USA.gov is the U.S. government's official web portal to all federal, state and local government web resources and services.